Weather History for Managua, Nicaragua

Change the Weather History Date:

Tuesday, April 9, 2013

  Actual Average Record
Temperature  
Mean Temperature 85 °F -  
Max Temperature 95 °F 92 °F 100 °F (1998)
Min Temperature 75 °F 73 °F 69 °F (1999)
Cooling Degree Days 20    
Growing Degree Days 35 (Base 50)    
Moisture  
Dew Point 68 °F    
Average Humidity 59    
Maximum Humidity 78    
Minimum Humidity 36    
Precipitation  
Precipitation 0.00 in - - ()
Sea Level Pressure  
Sea Level Pressure 29.82 in    
Wind  
Wind Speed 9 mph ()    
Max Wind Speed 23 mph    
Max Gust Speed -    
Visibility 6.1 miles    
Events      
Averages and records for this station are not official NWS values.
T = Trace of Precipitation, MM = Missing Value Source: Averaged Metar Reports

Daily Weather History Graph

Daily Weather History Graph

Search for Another Location

Airport:

Trip Planner

Search our weather history database for the weather conditions in past years. The results will help you decide how hot, cold, wet, or windy it might be!

Date:

Astronomy

Apr. 09, 2013 Rise Set
Actual Time 5:36 AM CST 5:56 PM CST
Civil Twilight 5:14 AM CST 6:17 PM CST
Nautical Twilight 4:49 AM CST 6:42 PM CST
Astronomical Twilight 4:24 AM CST 7:07 PM CST
Moon 4:54 AM CST (4/9) 5:29 PM CST (4/9)
Length of Visible Light 13h 03m
Length of Day
12h 20m
Waning Crescent, 0% of the Moon is Illuminated
Apr 9
Waning Crescent
Apr 10
New
Apr 18
First Quarter
Apr 25
Full
May 2
Last Quarter

Hourly Weather History & Observations

Time (CST) Temp. Heat Index Dew Point Humidity Pressure Visibility Wind Dir Wind Speed Gust Speed Precip Events Conditions
12:00 AM 80.6 °F 83.9 °F 69.8 °F 70% 29.83 in 6.2 mi SE 6.9 mph - N/A   Partly Cloudy
1:00 AM 78.8 °F - 69.8 °F 74% 29.83 in 6.2 mi ESE 4.6 mph - N/A   Partly Cloudy
2:00 AM 78.8 °F - 69.8 °F 74% 29.83 in 6.2 mi ESE 6.9 mph - N/A   Partly Cloudy
3:00 AM 77.0 °F - 68.0 °F 74% 29.83 in 6.2 mi East 4.6 mph - N/A   Partly Cloudy
4:00 AM 75.2 °F - 68.0 °F 78% 29.83 in 6.2 mi ESE 4.6 mph - N/A   Partly Cloudy
5:00 AM 77.0 °F - 68.0 °F 74% 29.86 in 6.2 mi East 6.9 mph - N/A   Scattered Clouds
6:00 AM 77.0 °F - 68.0 °F 74% 29.86 in 6.2 mi East 4.6 mph - N/A   Partly Cloudy
7:00 AM 78.8 °F - 69.8 °F 74% 29.89 in 6.2 mi East 6.9 mph - N/A   Mostly Cloudy
8:00 AM 80.6 °F 83.2 °F 68.0 °F 65% 29.89 in 6.2 mi East 9.2 mph - N/A   Mostly Cloudy
9:00 AM 86.0 °F 89.4 °F 68.0 °F 55% 29.89 in 6.2 mi East 18.4 mph - N/A   Scattered Clouds
10:00 AM 89.6 °F 92.2 °F 66.2 °F 46% 29.86 in 6.2 mi East 13.8 mph - N/A   Partly Cloudy
11:00 AM 93.2 °F 96.2 °F 66.2 °F 41% 29.83 in 6.2 mi ESE 16.1 mph - N/A   Partly Cloudy
12:00 PM 95.0 °F 99.5 °F 68.0 °F 41% 29.83 in 6.2 mi ESE 23.0 mph - N/A   Partly Cloudy
1:00 PM 95.0 °F 98.5 °F 66.2 °F 39% 29.77 in 6.2 mi East 20.7 mph - N/A   Scattered Clouds
2:00 PM 95.0 °F 97.0 °F 64.4 °F 36% 29.77 in 6.2 mi East 11.5 mph - N/A   Scattered Clouds
3:00 PM 95.0 °F 97.0 °F 64.4 °F 36% 29.74 in 6.2 mi ENE 13.8 mph - N/A   Scattered Clouds
4:00 PM 95.0 °F 98.5 °F 66.2 °F 39% 29.74 in 6.2 mi East 18.4 mph - N/A   Scattered Clouds
5:00 PM 93.2 °F 96.2 °F 66.2 °F 41% 29.74 in 6.2 mi ESE 16.1 mph - N/A   Scattered Clouds
6:00 PM 89.6 °F 94.7 °F 69.8 °F 52% 29.74 in 6.2 mi ESE 13.8 mph - N/A   Partly Cloudy
7:00 PM 87.8 °F 92.6 °F 69.8 °F 55% 29.77 in 5.6 mi ESE 16.1 mph - N/A   Partly Cloudy
8:00 PM 86.0 °F 91.8 °F 71.6 °F 62% 29.80 in 5.6 mi ESE 13.8 mph - N/A   Scattered Clouds
9:00 PM 84.2 °F 89.6 °F 71.6 °F 66% 29.83 in 5.6 mi SE 6.9 mph - N/A   Scattered Clouds
10:00 PM 84.2 °F 89.6 °F 71.6 °F 66% 29.83 in 5.6 mi ESE 13.8 mph - N/A   Scattered Clouds
11:00 PM 82.4 °F 88.2 °F 73.4 °F 74% 29.83 in 5.6 mi ESE 16.1 mph - N/A   Scattered Clouds